TimeCDT,TemperatureF,Dew PointF,Humidity,Sea Level PressureIn,VisibilityMPH,Wind Direction,Wind SpeedMPH,Gust SpeedMPH,PrecipitationIn,Events,Conditions,WindDirDegrees,DateUTC
12:52 AM,44.1,34.0,68,29.95,10.0,East,11.5,-,N/A,,Overcast,80,2013-04-14 05:52:00
1:52 AM,43.0,35.1,74,29.93,10.0,East,11.5,-,0.00,,Overcast,90,2013-04-14 06:52:00
2:52 AM,43.0,35.1,74,29.91,10.0,East,11.5,-,0.00,,Overcast,80,2013-04-14 07:52:00
3:52 AM,43.0,35.1,74,29.89,10.0,East,15.0,-,N/A,,Overcast,90,2013-04-14 08:52:00
4:52 AM,42.1,36.0,79,29.88,7.0,East,13.8,-,0.01,Rain,Rain,90,2013-04-14 09:52:00
5:52 AM,41.0,36.0,82,29.85,10.0,East,16.1,-,0.01,,Overcast,90,2013-04-14 10:52:00
6:52 AM,41.0,36.0,82,29.83,10.0,East,13.8,-,N/A,,Mostly Cloudy,80,2013-04-14 11:52:00
7:52 AM,42.1,37.0,82,29.81,10.0,East,13.8,-,N/A,,Overcast,90,2013-04-14 12:52:00
8:52 AM,44.1,37.9,79,29.82,10.0,East,16.1,-,N/A,,Overcast,100,2013-04-14 13:52:00
9:52 AM,48.0,41.0,77,29.79,10.0,ESE,16.1,-,N/A,,Mostly Cloudy,110,2013-04-14 14:52:00
10:52 AM,54.0,44.1,69,29.76,10.0,ESE,16.1,23.0,N/A,,Scattered Clouds,110,2013-04-14 15:52:00
11:52 AM,60.1,46.0,60,29.71,10.0,ESE,18.4,24.2,N/A,,Clear,110,2013-04-14 16:52:00
12:52 PM,70.0,46.9,44,29.65,10.0,SSE,17.3,26.5,N/A,,Clear,160,2013-04-14 17:52:00
1:52 PM,73.9,46.9,38,29.62,10.0,SSE,19.6,26.5,N/A,,Clear,160,2013-04-14 18:52:00
2:52 PM,75.0,44.1,33,29.58,10.0,South,20.7,31.1,N/A,,Clear,170,2013-04-14 19:52:00
3:52 PM,75.9,44.1,32,29.55,10.0,South,20.7,33.4,N/A,,Clear,180,2013-04-14 20:52:00
4:52 PM,73.9,43.0,33,29.53,10.0,South,15.0,27.6,N/A,,Clear,170,2013-04-14 21:52:00
5:52 PM,73.0,45.0,37,29.53,10.0,SSE,18.4,27.6,N/A,,Clear,160,2013-04-14 22:52:00
6:52 PM,71.1,46.0,41,29.53,10.0,SSE,18.4,25.3,N/A,,Clear,160,2013-04-14 23:52:00
7:52 PM,68.0,45.0,43,29.53,10.0,SSE,17.3,24.2,N/A,,Clear,160,2013-04-15 00:52:00
8:52 PM,68.0,46.0,45,29.55,10.0,SSE,18.4,27.6,N/A,,Clear,160,2013-04-15 01:52:00
9:52 PM,66.9,50.0,54,29.54,10.0,South,19.6,-,N/A,,Clear,170,2013-04-15 02:52:00
10:52 PM,66.0,52.0,60,29.52,10.0,South,17.3,27.6,N/A,,Mostly Cloudy,170,2013-04-15 03:52:00
11:05 PM,66.2,51.8,60,29.54,10.0,SSW,16.1,28.8,N/A,Thunderstorm,Scattered Clouds,200,2013-04-15 04:05:00
11:15 PM,62.6,53.6,72,29.60,9.0,West,21.9,26.5,N/A,Thunderstorm,Thunderstorm,280,2013-04-15 04:15:00
11:21 PM,57.2,55.4,94,29.61,2.5,WNW,15.0,26.5,0.03,Rain-Thunderstorm,Heavy Thunderstorms and Rain,290,2013-04-15 04:21:00
11:26 PM,57.2,55.4,94,29.61,1.5,WNW,12.7,-,0.13,Rain-Thunderstorm,Heavy Thunderstorms and Rain,290,2013-04-15 04:26:00
11:29 PM,57.2,55.4,94,29.62,2.0,WNW,9.2,18.4,0.17,Rain-Thunderstorm,Heavy Thunderstorms and Rain,290,2013-04-15 04:29:00
11:39 PM,57.2,53.6,88,29.63,5.0,NW,20.7,24.2,0.20,Rain-Thunderstorm,Light Thunderstorms and Rain,310,2013-04-15 04:39:00
11:45 PM,55.4,51.8,88,29.64,6.0,WNW,10.4,25.3,0.21,Rain-Thunderstorm,Thunderstorms and Rain,290,2013-04-15 04:45:00
11:52 PM,55.9,52.0,87,29.65,8.0,WNW,6.9,-,0.22,Rain-Thunderstorm,Light Thunderstorms and Rain,290,2013-04-15 04:52:00